Tracking 35274 objects as of 12-Sep-2026
HD Live streaming from Space Station
objects crossing your sky now

STARLINK-30302


STARLINK-30302 is no longer on orbit
STARLINK-30302 is classified as:


NORAD ID: 57664
Int'l Code: 2023-124B
Launch date: August 22, 2023
Source: United States (US)
Launch site: AIR FORCE WESTERN TEST RANGE (AFWTR)
Decay date: 2025-02-27
Your satellite tracking list
Your tracking list is empty




NASA's NSSDC Master Catalog

Two Line Element Set (TLE):
1 57664U 23124B   25058.48334441  .48279878  12340-4  54315-2 0  9998
2 57664  53.1263 134.3133 0005828   4.3208  95.5283 16.36224406 86323
Source of the keplerian elements: AFSPC